Current Weather Conditions: station 63103

sailwx.info

Last reported at 2014-Sep-09 06:33 UTC.
Time now 2014-Dec-22 14:51 UTC

Location: N 61°12' E 001°06'.
View on Google Maps.

See reports from other nearby stations

  
Tides and Currents Weather Stations Pressure Air Temp Water Temp Dewpoint Dewpoint Depression Visibility Wind Speed Wind Dir Waves Ship Positions
date/time (UTC)wind fromknots sea level pressurealtimeterstation pressurevisibilityair tempwater tempwave heightnotes
2014-Dec-22 14:00 270 27 7.3 5.6
2014-Dec-22 13:00 270 32 6.7 5.6
2014-Dec-22 12:00 260 23 6.9 5.3
2014-Dec-22 11:00 270 30 6.6 5.0
2014-Dec-22 10:00 270 22 5.4 4.4
2014-Dec-22 09:00 260 31 6.3 4.9
2014-Dec-22 08:00 260 24 6.1 4.8
2014-Dec-22 07:00 240 11 4.5 4.7
2014-Dec-22 06:00 270 16 5.7 4.3
2014-Dec-22 05:00 250 18 6.2 4.5
2014-Dec-22 04:00 270 15 5.0 4.3
2014-Dec-22 03:00 270 23 5.6 4.2
2014-Dec-22 02:00 260 20 5.1 4.2
2014-Dec-22 01:00 270 27 6.3 4.3
2014-Dec-22 00:00 290 23 3.9 4.0
2014-Dec-21 23:00 290 20 4.6 4.1
2014-Dec-21 22:00 260 23 7.6 4.3
2014-Dec-21 21:00 260 27 7.7 4.1
2014-Dec-21 20:00 260 27 8.3 3.7
2014-Dec-21 19:00 260 24 8.4 3.6
2014-Dec-21 18:00 270 22 9.0 3.7
2014-Dec-21 17:00 270 20 9.5 3.6
2014-Dec-21 16:00 250 20 9.3 3.4
2014-Dec-21 15:00 270 22 9.3 3.5
2014-Dec-21 14:00 260 24 8.9 3.0
2014-Dec-21 13:00 260 17 8.8 3.6
2014-Dec-21 12:00 230 11 8.0 3.4
2014-Dec-21 11:00 230 16 8.5 3.6
2014-Dec-21 10:00 230 20 8.1 3.6
2014-Dec-21 09:00 200 24 7.1 3.3
2014-Dec-21 07:00 210 19 6.7 3.4
2014-Dec-21 06:00 200 18 6.5 3.6
2014-Dec-21 05:00 190 19 6.3 3.7
2014-Dec-21 04:00 190 17 6.4 3.6
2014-Dec-21 03:00 210 13 6.3 4.0
2014-Dec-21 02:00 240 9 6.2 4.2
2014-Dec-21 01:00 260 9 6.1 4.4
2014-Dec-21 00:00 280 9 6.0 4.4
2014-Dec-20 23:00 300 9 5.9 4.5
2014-Dec-20 22:00 300 12 5.9 4.7
2014-Dec-20 21:00 310 15 5.8 4.5
2014-Dec-20 20:00 320 15 6.0 4.6
2014-Dec-20 19:00 320 19 4.8 4.7
2014-Dec-20 18:00 330 19 6.5 5.0
2014-Dec-20 17:00 330 25 6.6 5.3
2014-Dec-20 16:00 350 22 6.4 5.3
2014-Dec-20 15:00 350 24 6.5 5.3
2014-Dec-20 14:00 330 22 7.0 5.3